www.pogodaiklimat.ru

Погода и климат >> Архив погоды >> Австралия >> Квинсленд >> Сент-Лоренс


ПОГОДА в Сент-Лоренсе

  • Прогноз погоды в Сент-Лоренсе
  • Монитор погоды в Сент-Лоренсе

АРХИВ ПОГОДЫ в Сент-Лоренсе

Время (UTC), дата Ветер
(напр.,м/с)
 
Видим.   Явления Облачность Т
(С)
Тd
(С)
f
(%)
Тe
(С)
Тes
(С)
Комфортность P
(гПа)
Po
(гПа)
Тmin
(С)
Tmax
(С)
R
(мм)
R24
(мм)
S
(см)
11 14.03 С 4 н/о н/о +27.3 +23.3 79 +37 +37 очень
душно
1011.8 1010.7
14 14.03 СВ 3 н/о н/о +26.8 +23.5 82 +36 +36 очень
душно
1011.5 1010.4 +32.2
17 14.03 СЗ 2 н/о н/о +25.0 +22.9 88 +33 +33 очень
душно
1009.9 1008.8
20 14.03 СЗ 1 н/о н/о +23.9 +22.5 92 +31 +31 очень
душно
1010.4 1009.3
23 14.03 СВ 3 н/о н/о +28.4 +23.3 74 +38 +38 очень
душно
1011.9 1010.8
02 15.03 СВ 6 н/о н/о +31.1 +23.2 63 +42 +42 опасность
перегрева
1011.6 1010.5 +23.9
05 15.03 С 7 н/о н/о +30.9 +22.2 60 +40 +40 очень
душно
1008.7 1007.6
08 15.03 С 7 н/о н/о +28.3 +23.4 75 +38 +38 очень
душно
1008.7 1007.6
11 15.03 С 4 н/о н/о +27.3 +23.1 78 +37 +37 очень
душно
1011.3 1010.2
14 15.03 СВ 4 н/о н/о +27.5 +23.7 80 +38 +38 очень
душно
1011.8 1010.7 +32.8
17 15.03 штиль 0 н/о н/о +26.3 +23.2 83 +35 +35 очень
душно
1009.7 1008.6
20 15.03 Ю 4 н/о туман местами н/о +22.4 +21.2 93 +29 +29 очень
душно
1011.3 1010.2
23 15.03 С 1 н/о {туман} н/о +25.4 +21.3 78 +32 +32 очень
душно
1012.4 1011.3
02 16.03 СВ 6 н/о {туман} н/о +30.7 +23.1 64 +41 +41 опасность
перегрева
1011.3 1010.2 +22.4
05 16.03 СВ 6 н/о {туман} н/о +29.1 +22.6 68 +38 +38 очень
душно
1009.6 1008.5
08 16.03 СВ 3 н/о н/о +27.4 +22.1 73 +36 +36 очень
душно
1011.1 1010.0
11 16.03 Ю 2 н/о н/о +24.3 +21.6 85 +31 +31 очень
душно
1013.2 1012.1
14 16.03 штиль 0 н/о н/о +23.9 +22.2 90 +31 +31 очень
душно
1012.6 1011.5 +31.0
17 16.03 штиль 0 н/о н/о +24.6 +22.1 86 +32 +32 очень
душно
1010.8 1009.7
20 16.03 штиль 0 н/о н/о +23.4 +21.8 91 +32 +32 очень
душно
1011.8 1010.7
23 16.03 З 2 н/о н/о +26.7 +22.8 79 +35 +35 очень
душно
1013.6 1012.5
02 17.03 СВ 5 н/о н/о +30.8 +21.9 59 +39 +39 очень
душно
1012.1 1011.0 +22.9
05 17.03 С 6 н/о н/о +30.5 +19.8 53 +37 +37 очень
душно
1010.5 1009.4
08 17.03 СВ 5 н/о н/о +27.7 +21.7 70 +36 +36 очень
душно
1011.2 1010.1
11 17.03 С 3 н/о н/о +26.7 +21.9 75 +34 +34 очень
душно
1013.5 1012.4
14 17.03 штиль 0 н/о н/о +23.8 +21.9 89 +31 +31 очень
душно
1012.8 1011.7 +31.4
17 17.03 штиль 0 н/о н/о +23.0 +21.5 91 +31 +31 очень
душно
1010.8 1009.7
20 17.03 штиль 0 н/о н/о +22.0 +21.0 94 +28 +28 душно 1012.2 1011.1
23 17.03 СВ 3 н/о н/о +28.5 +22.3 69 +37 +37 очень
душно
1013.8 1012.7
02 18.03 СВ 4 н/о н/о +30.4 +20.3 55 +37 +37 очень
душно
1012.6 1011.5 +22.1
05 18.03 СВ 5 н/о н/о +30.3 +20.5 56 +37 +37 очень
душно
1010.1 1009.0
08 18.03 С 5 н/о н/о +27.8 +20.6 65 +35 +35 очень
душно
1010.6 1009.5
11 18.03 штиль 0 н/о н/о +24.7 +21.8 84 +32 +32 очень
душно
1012.0 1010.9
14 18.03 штиль 0 н/о н/о +22.7 +21.0 90 +30 +30 очень
душно
1012.1 1011.0 +31.5
17 18.03 штиль 0 н/о н/о +21.9 +20.4 91 +28 +28 душно 1010.1 1009.0
20 18.03 Ю 1 н/о н/о +22.3 +20.9 92 +29 +29 очень
душно
1010.9 1009.8
23 18.03 СВ 3 н/о н/о +28.1 +22.3 71 +37 +37 очень
душно
1013.1 1012.0
02 19.03 СВ 4 н/о н/о +30.1 +22.3 63 +39 +39 очень
душно
1012.1 1011.0 +21.7
05 19.03 СВ 4 н/о н/о +31.4 +21.0 54 +39 +39 очень
душно
1009.5 1008.4
08 19.03 СВ 4 н/о н/о +28.2 +22.2 70 +37 +37 очень
душно
1009.9 1008.8
11 19.03 штиль 0 н/о н/о +25.3 +22.0 82 +33 +33 очень
душно
1012.2 1011.1
14 19.03 штиль 0 н/о н/о +23.8 +21.9 89 +31 +31 очень
душно
1011.3 1010.2 +32.0
17 19.03 штиль 0 н/о н/о +22.8 +21.4 92 +30 +30 очень
душно
1009.9 1008.8
20 19.03 штиль 0 н/о н/о +22.3 +21.1 93 +29 +29 очень
душно
1010.9 1009.8
23 19.03 СЗ 1 н/о н/о +28.4 +23.3 74 +38 +38 очень
душно
1012.6 1011.5
02 20.03 СВ 5 н/о н/о +30.8 +22.9 63 +41 +41 опасность
перегрева
1012.3 1011.2 +22.3
05 20.03 СВ 5 н/о н/о +30.7 +21.5 58 +39 +39 очень
душно
1009.5 1008.4
08 20.03 С 6 н/о н/о +27.7 +23.5 78 +38 +38 очень
душно
1010.1 1009.0
11 20.03 ЮВ 2 н/о н/о +27.0 +23.5 81 +37 +37 очень
душно
1013.4 1012.3
14 20.03 З 2 н/о н/о +22.6 +21.2 92 +30 +30 очень
душно
1012.3 1011.2 +31.8
17 20.03 штиль 0 н/о н/о +21.9 +20.4 91 +28 +28 душно 1010.1 1009.0
20 20.03 Ю 3 н/о н/о +22.2 +20.8 92 +29 +29 очень
душно
1011.3 1010.2
23 20.03 ЮЗ 3 н/о н/о +27.1 +22.7 77 +36 +36 очень
душно
1013.4 1012.3
02 21.03 С 4 н/о н/о +31.1 +20.7 54 +38 +38 очень
душно
1012.5 1011.4 +21.9
05 21.03 СВ 5 н/о н/о +30.7 +22.3 61 +40 +40 очень
душно
1010.1 1009.0
08 21.03 С 4 н/о н/о +27.9 +22.4 72 +37 +37 очень
душно
1011.7 1010.6

 

Местоположение метеостанции Сент-Лоренс (Квинсленд, Австралия): широта -22.35 долгота 149.52 высота над уровнем моря 10 м.

В архиве по умолчанию представлена погода в Сент-Лоренсе за последнюю неделю. Архивные данные за месяц целиком и за предыдущие месяцы, начиная с января 2011 года, Вы можете получить, выбрав интересующий диапазон дат из раскрывающегося списка и нажав кнопку "Ввод!".


*Определитесь, кто Вы:
робот инопланетянин человек

Внимание! Время в таблицах - всемирное. Для получения местного времени необходимо прибавить поправку, которая равна 10 ч.

Смотрите также архив погоды в соседних городах и на ближайших метеорологических станциях:

Погода в Уильямсоне (Квинсленд, Австралия) (69 км)
Погода на Острове Мидл (Квинсленд, Австралия) (108 км)
Погода в Сэмюэл Хилл (Квинсленд, Австралия) (124 км)
Погода в Маккае (Квинсленд, Австралия) (136 км)
Погода в Маккае (Квинсленд, Австралия) (142 км)
Погода в Рокхемптоне (Квинсленд, Австралия) (151 км)
Погода в Йеппуне (Квинсленд, Австралия) (153 км)
Погода в Эмералде (Квинсленд, Австралия) (192 км)
Погода в Клермоне (Квинсленд, Австралия) (201 км)
Погода в Крил Риф (Квинсленд, Австралия) (221 км)

Пояснения к столбцам:

Ветер - указаны скорость ветра в м/с - средняя за 10 мин, порывы в срок и между сроками (в фигурных скобках) и направление, откуда дует ветер: С - северный, СВ - северо-восточный, В - восточный, ЮВ - юго-восточный, Ю - южный, ЮЗ - юго-западный, З - западный, СЗ - северо-западный.
Видимость - горизонтальная дальность видимости в метрах или километрах. При видимости от 1 до 10 км при отсутствии осадков обычно наблюдается дымка, при ухудшении видимости до 1 км и менее - туман. В сухую погоду видимость может ухудшаться дымом, пылью или мглою.
Явления - указаны атмосферные явления, наблюдавшиеся в срок или в последний час перед сроком; фигурными скобками обозначены явления, наблюдавшиеся между сроками (за 1-3 часа до срока); квадратными скобками обозначены град или гололедные отложения с указанием их диаметра в мм.
Облачность - указаны через наклонную черту общая и нижняя облачность в баллах и высота нижней границы облаков в метрах; квадратными скобками обозначены формы облаков: Ci - перистые, Cs - перисто-слоистые, Cc - перисто-кучевые, Ac - высококучевые, As - высокослоистые, Sc - слоисто-кучевые, Ns - слоисто-дождевые, Cu - кучевые, Cb - кучево-дождевые. Подробнее классификацию облаков см. в Атласе облаков (PDF).
T - Температура воздуха - температура, измеренная на высоте 2 м над землей.
Td - Температура точки росы - температура, при понижении до которой содержащийся в воздухе водяной пар достигнет насыщения.
f - Относительная влажность воздуха - влажноcть воздуха, измеренная на высоте 2 м над землей.
Te - Эффективная температура - температура, которую ощущает одетый по сезону человек в тени. Характеристика душности погоды. При расчете учитывается влияние влажности воздуха и скорости ветра на теплоощущения человека.
Tes - Эффективная температура на солнце - температура, которую ощущает человек, с поправкой на солнечный нагрев. Характеристика знойности погоды. Зависит от высоты солнца над горизонтом, облачности и скорости ветра. Ночью, в пасмурную погоду, а также при ветре 12 м/с и более поправка равна нулю.
P - Атмосферное давление - приведенное к уровню моря атмосферное давление.
Po - Атмосферное давление - измеренное на уровне метеостанции атмосферное давление.
Tmin - Минимальная температура - минимум температуры воздуха на высоте 2 м над землей.
Tmax - Максимальная температура - максимум температуры воздуха на высоте 2 м над землей.
R - Количество осадков - Количество выпавших осадков за период времени, мм. При наведении курсора мыши на число - период времени, за который выпало указанное количество осадков.
R24 - Количество осадков - Количество выпавших осадков за 24 часа, мм.
S - Снежный покров - Высота снежного покрова, см. При наведении курсора мыши на число - состояние снежного покрова и степень покрытия местности в баллах.